Home > Weather > Oberlin > Past weeks

Flag for USA Weather for the Past 2 Weeks in Oberlin, Ohio, USA

Now
44 °F

Clear.


Feels Like: 44 °F
Forecast: 44 / 61 °F
Wind: No wind

Location: Lorain County Regional Airport

Current Time: May 4, 2016 at 6:40:09 AM

Latest Report: May 4, 2016 at 5:53 AM


Visibility: 8 mi

Pressure: 29.70 "Hg

Humidity: 82%

Dew Point: 39 °F

Location of OberlinLocation

Historic Weather in Oberlin — Graph

°F

Oberlin Temperature Yesterday

Maximum temperature yesterday: 59 °F (at 3:53 PM)
Minimum temperature yesterday: 43 °F (at 12:53 AM)
Average temperature yesterday: 51 °F

High & Low Weather Summary for the Past Weeks

 TemperatureHumidityPressure
High79 °F (Apr 25, 4:53 PM)93% (Apr 29, 6:53 AM)30.31 "Hg (Apr 29, 6:53 AM)
Low34 °F (Apr 24, 5:53 AM)23% (Apr 20, 1:53 PM)29.66 "Hg (Apr 26, 2:53 AM)
Average51 °F70%29.99 "Hg
* Reported Apr 19 4:53 AM — May 4 4:53 AM, Oberlin, Weather by CustomWeather, © 2016

Note: Actual official high and low records may vary slightly from our data, if they occured in-between our weather recording intervals... More about our weather records

Advertising

Oberlin Weather History for the Previous 24 Hours

Scroll right to see more
 ConditionsComfort  
Time TempWeatherWind HumidityBarometerVisibility
4:53 AM
Wed, May 4
42 °FClear.3 mph89%29.71 "Hg7 mi
3:53 AM44 °FClear.5 mph82%29.72 "Hg10 mi
2:53 AM45 °FClear.5 mph82%29.74 "Hg10 mi
1:53 AM46 °FClear.5 mph79%29.77 "Hg10 mi
12:53 AM46 °FClear.5 mph77%29.79 "Hg10 mi
11:53 PM
Tue, May 3
47 °FClear.No wind74%29.80 "Hg10 mi
10:53 PM48 °FClear.No wind71%29.82 "Hg10 mi
9:53 PM50 °FClear.No wind66%29.83 "Hg10 mi
8:53 PM53 °FSunny.No wind52%29.84 "Hg10 mi
7:53 PM57 °FPartly sunny.No wind46%29.83 "Hg10 mi
6:53 PM57 °FOvercast.No wind44%29.84 "Hg10 mi
5:53 PM57 °FOvercast.3 mph44%29.85 "Hg10 mi
4:53 PM58 °FOvercast.8 mph44%29.85 "Hg10 mi
3:53 PM59 °FSunny.9 mph46%29.86 "Hg10 mi
2:53 PM57 °FOvercast.8 mph46%29.88 "Hg10 mi
1:53 PM56 °FOvercast.9 mph49%29.90 "Hg10 mi
12:53 PM54 °FOvercast.10 mph55%29.91 "Hg10 mi
11:53 AM54 °FOvercast.6 mph59%29.93 "Hg10 mi
10:53 AM51 °FBroken clouds.9 mph71%29.93 "Hg10 mi
9:53 AM50 °FMore clouds than sun.7 mph74%29.93 "Hg10 mi
8:53 AM48 °FMostly cloudy.No wind80%29.94 "Hg10 mi
8:04 AM47 °FMostly cloudy.3 mph83%29.93 "Hg9 mi
7:04 AM45 °FFog.No wind93%29.93 "Hg3 mi
Weather by CustomWeather, © 2016

See weather overviewHow to use our weather pages